Вернуться в каталог

STARLINK-3655

АктивенСвязьVLEO
NORAD 51983·PAYLOAD·🇺🇸 United States

Запущен Mar 9, 2022 с Cape Canaveral Space Force Station

Loading…

Ближайшие Пролёты (ближайшие 24 часа)

TLE

СвежийSource: CelesTrak SupGP

Эпоха: Sep 14, 2026, 20:57 UTC

1 51983C 22025AD  26257.87340278  .00052453  00000+0  14827-2 0  2577
2 51983  53.1580 261.7976 0001694  63.6559 223.3236 15.35749731    19

Отслеживайте STARLINK-3655 в реальном времени с AllMySat

Download on the App Store